Weather History for Rensselaer, IN

Change the Weather History Date:

Wednesday, March 20, 2013

  Actual Average (KVPZ) Record (KVPZ)
Temperature  
Mean Temperature 26 °F 39 °F  
Max Temperature 32 °F 48 °F 84 °F (2012)
Min Temperature 19 °F 30 °F 6 °F (1923)
Degree Days  
Heating Degree Days 40 26  
Month to date heating degree days 586  
Since 1 July heating degree days 5318  
Cooling Degree Days 0 0  
Month to date cooling degree days 0  
Year to date cooling degree days 0  
Moisture  
Dew Point 12 °F    
Average Humidity 57    
Maximum Humidity 86    
Minimum Humidity 37    
Precipitation  
Precipitation 0.00 in 0.07 in 1.17 in (1967)
Month to date precipitation 1.48  
Year to date precipitation 4.65  
Sea Level Pressure  
Sea Level Pressure 30.05 in    
Wind  
Wind Speed 13 mph (WNW)    
Max Wind Speed 23 mph    
Max Gust Speed 31 mph    
Visibility 10 miles    
Events Snow    
T = Trace of Precipitation, MM = Missing Value Source: NWS Daily Summary

Daily Weather History Graph

Daily Weather History Graph

Search for Another Location

Airport:

Trip Planner

Search our weather history database for the weather conditions in past years. The results will help you decide how hot, cold, wet, or windy it might be!

Date:

Astronomy

Mar. 20, 2013 Rise Set
Actual Time 6:51 AM CDT 7:01 PM CDT
Civil Twilight 6:24 AM CDT 7:28 PM CDT
Nautical Twilight 5:52 AM CDT 8:00 PM CDT
Astronomical Twilight 5:19 AM CDT 8:33 PM CDT
Moon 12:33 PM CDT (3/20) 2:33 AM CDT (3/20)
Length of Visible Light 13h 04m
Length of Day
12h 09m
First Quarter, 59% of the Moon is Illuminated
Mar 20
First Quarter
Mar 27
Full
Apr 2
Last Quarter
Apr 10
New
Apr 18
First Quarter

Hourly Weather History & Observations

Time (CDT) Temp. Windchill Dew Point Humidity Pressure Visibility Wind Dir Wind Speed Gust Speed Precip Events Conditions
12:15 AM 28.4 °F 19.7 °F 19.4 °F 69% 30.08 in 10.0 mi West 9.2 mph - N/A   Unknown
12:35 AM 28.4 °F 19.1 °F 17.6 °F 64% 30.07 in 10.0 mi West 10.4 mph - N/A   Unknown
12:55 AM 28.4 °F 20.4 °F 17.6 °F 64% 30.07 in 10.0 mi West 8.1 mph - N/A   Unknown
1:15 AM 28.4 °F 21.2 °F 17.6 °F 64% 30.06 in 10.0 mi West 6.9 mph - N/A   Unknown
1:35 AM 28.4 °F 20.4 °F 17.6 °F 64% 30.06 in 10.0 mi West 8.1 mph - N/A   Unknown
1:55 AM 28.4 °F 20.4 °F 19.4 °F 69% 30.06 in 10.0 mi West 8.1 mph - N/A   Unknown
2:15 AM 28.4 °F 19.1 °F 17.6 °F 64% 30.06 in 10.0 mi West 10.4 mph 16.1 mph N/A   Unknown
2:35 AM 28.4 °F 20.4 °F 17.6 °F 64% 30.06 in 10.0 mi West 8.1 mph - N/A   Unknown
2:55 AM 28.4 °F 16.6 °F 15.8 °F 59% 30.06 in 10.0 mi West 16.1 mph 23.0 mph N/A   Unknown
3:15 AM 28.4 °F 19.1 °F 15.8 °F 59% 30.05 in 10.0 mi West 10.4 mph 18.4 mph N/A   Unknown
3:35 AM 28.4 °F 19.1 °F 15.8 °F 59% 30.04 in 10.0 mi West 10.4 mph - N/A   Unknown
3:55 AM 28.4 °F 18.5 °F 15.8 °F 59% 30.04 in 10.0 mi West 11.5 mph 16.1 mph N/A   Unknown
4:15 AM 26.6 °F 17.5 °F 17.6 °F 69% 30.04 in 10.0 mi West 9.2 mph - N/A   Unknown
4:35 AM 26.6 °F 19.1 °F 17.6 °F 69% 30.03 in 10.0 mi West 6.9 mph - N/A   Unknown
4:55 AM 26.6 °F 17.5 °F 15.8 °F 64% 30.03 in 10.0 mi WNW 9.2 mph 16.1 mph N/A   Unknown
5:15 AM 24.8 °F 11.5 °F 14.0 °F 64% 30.04 in 10.0 mi WNW 17.3 mph 23.0 mph N/A   Unknown
5:35 AM 23.0 °F 9.6 °F 14.0 °F 68% 30.04 in 10.0 mi WNW 16.1 mph 23.0 mph N/A   Unknown
5:55 AM 23.0 °F 11.1 °F 14.0 °F 68% 30.04 in 10.0 mi WNW 12.7 mph 19.6 mph N/A   Unknown
6:15 AM 23.0 °F 11.7 °F 14.0 °F 68% 30.04 in 10.0 mi West 11.5 mph 17.3 mph N/A   Unknown
6:35 AM 21.2 °F 10.1 °F 12.2 °F 68% 30.05 in 10.0 mi WNW 10.4 mph 19.6 mph N/A   Unknown
6:55 AM 21.2 °F 7.8 °F 10.4 °F 63% 30.06 in 10.0 mi West 15.0 mph 20.7 mph N/A   Unknown
7:15 AM 21.2 °F 7.8 °F 10.4 °F 63% 30.07 in 10.0 mi WNW 15.0 mph 21.9 mph N/A   Unknown
7:35 AM 21.2 °F 8.3 °F 10.4 °F 63% 30.08 in 10.0 mi WNW 13.8 mph 20.7 mph N/A   Unknown
7:55 AM 19.4 °F 5.5 °F 8.6 °F 63% 30.08 in 10.0 mi WNW 15.0 mph 23.0 mph N/A   Unknown
8:15 AM 21.2 °F 6.8 °F 8.6 °F 58% 30.09 in 10.0 mi West 17.3 mph 20.7 mph N/A   Unknown
8:35 AM 21.2 °F 7.3 °F 8.6 °F 58% 30.09 in 10.0 mi WNW 16.1 mph 24.2 mph N/A   Unknown
8:55 AM 21.2 °F 8.3 °F 8.6 °F 58% 30.09 in 10.0 mi WNW 13.8 mph 21.9 mph N/A   Unknown
9:15 AM 23.0 °F 9.6 °F 8.6 °F 54% 30.09 in 10.0 mi WNW 16.1 mph 21.9 mph N/A   Unknown
9:35 AM 23.0 °F 8.7 °F 10.4 °F 59% 30.08 in 10.0 mi West 18.4 mph 23.0 mph N/A   Unknown
9:55 AM 23.0 °F 10.6 °F 10.4 °F 59% 30.08 in 10.0 mi WNW 13.8 mph 23.0 mph N/A   Unknown
10:35 AM 23.0 °F 9.6 °F 6.8 °F 50% 30.08 in 10.0 mi WNW 16.1 mph 23.0 mph N/A   Unknown
10:55 AM 24.8 °F 11.5 °F 8.6 °F 50% 30.08 in 10.0 mi WNW 17.3 mph 25.3 mph N/A   Unknown
11:15 AM 24.8 °F 10.3 °F 5.0 °F 43% 30.08 in 10.0 mi WNW 20.7 mph 28.8 mph N/A   Unknown
11:55 AM 26.6 °F 13.8 °F 6.8 °F 43% 30.08 in 10.0 mi West 17.3 mph 25.3 mph N/A   Unknown
12:15 PM 28.4 °F 15.4 °F 8.6 °F 43% 30.08 in 10.0 mi West 19.6 mph 25.3 mph N/A   Unknown
12:35 PM 26.6 °F 13.4 °F 6.8 °F 43% 30.07 in 10.0 mi West 18.4 mph 25.3 mph N/A   Unknown
12:55 PM 28.4 °F 15.4 °F 6.8 °F 40% 30.07 in 10.0 mi West 19.6 mph 27.6 mph N/A   Unknown
1:15 PM 28.4 °F 16.6 °F 6.8 °F 40% 30.06 in 10.0 mi West 16.1 mph 27.6 mph N/A   Unknown
1:35 PM 28.4 °F 16.2 °F 6.8 °F 40% 30.06 in 10.0 mi WNW 17.3 mph 28.8 mph N/A   Unknown
1:55 PM 28.4 °F 16.6 °F 6.8 °F 40% 30.05 in 10.0 mi West 16.1 mph 21.9 mph N/A   Unknown
2:15 PM 28.4 °F 16.6 °F 5.0 °F 37% 30.05 in 10.0 mi West 16.1 mph 26.5 mph N/A   Unknown
2:35 PM 30.2 °F 17.4 °F 8.6 °F 40% 30.04 in 10.0 mi West 20.7 mph 25.3 mph N/A   Unknown
2:55 PM 28.4 °F 16.6 °F 8.6 °F 43% 30.03 in 10.0 mi West 16.1 mph 21.9 mph N/A   Unknown
3:15 PM 30.2 °F 18.9 °F 6.8 °F 37% 30.03 in 10.0 mi West 16.1 mph 24.2 mph N/A   Unknown
3:35 PM 32.0 °F 19.2 °F 8.6 °F 38% 30.03 in 10.0 mi West 23.0 mph 31.1 mph N/A   Unknown
3:55 PM 28.4 °F 16.6 °F 6.8 °F 40% 30.02 in 10.0 mi West 16.1 mph 27.6 mph N/A   Unknown
4:15 PM 28.4 °F 16.2 °F 8.6 °F 43% 30.02 in 10.0 mi West 17.3 mph 23.0 mph N/A   Unknown
4:55 PM 28.4 °F 17.0 °F 10.4 °F 47% 30.03 in 10.0 mi West 15.0 mph 25.3 mph N/A   Unknown
5:15 PM 26.6 °F 14.7 °F 10.4 °F 51% 30.03 in 10.0 mi West 15.0 mph 25.3 mph N/A   Unknown
5:35 PM 26.6 °F 15.2 °F 8.6 °F 47% 30.03 in 10.0 mi West 13.8 mph 24.2 mph N/A   Unknown
5:55 PM 26.6 °F 14.3 °F 10.4 °F 51% 30.03 in 10.0 mi West 16.1 mph 24.2 mph N/A   Unknown
6:15 PM 26.6 °F 15.2 °F 10.4 °F 51% 30.04 in 10.0 mi West 13.8 mph - N/A   Unknown
6:35 PM 26.6 °F 14.7 °F 10.4 °F 51% 30.04 in 10.0 mi WNW 15.0 mph 24.2 mph N/A   Unknown
6:55 PM 24.8 °F 11.1 °F 10.4 °F 54% 30.04 in 10.0 mi WNW 18.4 mph 25.3 mph N/A   Unknown
7:15 PM 24.8 °F 11.9 °F 10.4 °F 54% 30.04 in 10.0 mi West 16.1 mph 23.0 mph N/A   Unknown
7:55 PM 24.8 °F 11.9 °F 12.2 °F 59% 30.04 in 7.0 mi West 16.1 mph 21.9 mph N/A Snow Light Snow
8:15 PM 24.8 °F 13.4 °F 12.2 °F 59% 30.04 in 10.0 mi WNW 12.7 mph 18.4 mph N/A   Unknown
8:35 PM 23.0 °F 11.7 °F 12.2 °F 63% 30.04 in 10.0 mi West 11.5 mph 21.9 mph N/A   Unknown
8:55 PM 24.8 °F 13.4 °F 10.4 °F 54% 30.04 in 10.0 mi WNW 12.7 mph 20.7 mph N/A   Unknown
9:15 PM 23.0 °F 11.7 °F 12.2 °F 63% 30.03 in 10.0 mi WNW 11.5 mph 23.0 mph N/A   Unknown
9:35 PM 23.0 °F 9.6 °F 12.2 °F 63% 30.03 in 10.0 mi WNW 16.1 mph 20.7 mph N/A   Unknown
9:55 PM 23.0 °F 10.6 °F 12.2 °F 63% 30.03 in 10.0 mi WNW 13.8 mph 18.4 mph N/A   Unknown
10:15 PM 23.0 °F 11.1 °F 14.0 °F 68% 30.03 in 10.0 mi NW 12.7 mph - N/A   Unknown
10:35 PM 23.0 °F 11.7 °F 15.8 °F 74% 30.03 in 7.0 mi WNW 11.5 mph - N/A   Unknown
10:55 PM 21.2 °F 9.5 °F 17.6 °F 86% 30.03 in 7.0 mi WNW 11.5 mph - N/A Snow Light Snow
11:15 PM 21.2 °F 10.1 °F 14.0 °F 74% 30.03 in 10.0 mi NW 10.4 mph - N/A   Unknown
11:35 PM 21.2 °F 10.9 °F 12.2 °F 68% 30.03 in 10.0 mi NW 9.2 mph 17.3 mph N/A   Unknown
11:55 PM 21.2 °F 11.7 °F 12.2 °F 68% 30.03 in 10.0 mi WNW 8.1 mph - N/A   Unknown